Location: ???? ?????
(30.0052°N, 31.2891°E)
Time: 20:19:05
(UTC+00:00)

ACS3 Solar Sail - Pass Details

Date: 22 September 2024
Orbit: 960 x 1036 km, 97.4° (Epoch: 09 October)

Event Time Altitude Azimuth Distance (km) Brightness Sun altitude
Exits shadow 18:19:20 69° 347° (NNW) 1,101 2.0 -32.3°
Drops below altitude 10° 18:24:56 10° 349° (NNW) 2,842 4.6 -33.4°
Sets 18:27:27 0° 349° (N) 3,796 5.3 -33.9°
